Home > Weather > San Juan de Pasto > Past weeks

Flag for Colombia Past Weather in San Juan de Pasto, Colombia — Yesterday and Last 2 Weeks

Now
45 °F

Passing clouds.


Feels Like: 45 °F
Forecast: 53 / 63 °F
Wind: 2 mph from North

Location: Latacunga Airport

Current Time: May 26, 2016 at 2:04:02 AM

Latest Report: May 26, 2016 at 1:00 AM


Visibility: N/A

Pressure: 30.51 "Hg (22.39 "Hg at 2535m altitude)

Humidity: 100%

Dew Point: 45 °F

Location of San Juan de PastoLocation

Past Weather in San Juan de Pasto — Graph

°F

San Juan de Pasto Temperature Yesterday

Maximum temperature yesterday: 68 °F (at 1:00 PM)
Minimum temperature yesterday: 46 °F (at 11:00 PM)
Average temperature yesterday: 56 °F

High & Low Weather Summary for the Past Weeks

 TemperatureHumidityPressure
High70 °F (May 12, 3:00 PM)100% (May 11, 1:00 AM)30.57 "Hg (May 11, 1:00 AM)
Low45 °F (May 18, 11:00 PM)49% (May 15, 4:00 PM)30.33 "Hg (May 11, 5:00 PM)
Average57 °F88%30.45 "Hg
* Reported May 11 1:00 AM — May 26 1:00 AM, San Juan de Pasto, Weather by CustomWeather, © 2016

Note: Actual official high and low records may vary slightly from our data, if they occured in-between our weather recording intervals... More about our weather records

Advertising

San Juan de Pasto Weather History for the Previous 24 Hours

Scroll right to see more
 ConditionsComfort  
Time TempWeatherWind HumidityBarometerVisibility
1:00 AM
Thu, May 26
45 °FPassing clouds.2 mph100%30.51 "HgN/A
12:00 AM46 °FPassing clouds.3 mph100%30.51 "HgN/A
11:00 PM
Wed, May 25
46 °FPassing clouds.2 mph100%30.54 "HgN/A
10:00 PM50 °FPassing clouds.5 mph100%30.54 "HgN/A
9:00 PM52 °FPassing clouds.2 mph100%30.54 "HgN/A
8:00 PM54 °FPassing clouds.12 mph100%30.51 "HgN/A
7:00 PM55 °FPassing clouds.13 mph100%30.51 "HgN/A
6:00 PM57 °FScattered showers. Partly sunny.15 mph94%30.48 "HgN/A
5:00 PM59 °FLight rain. Partly sunny.17 mph88%30.48 "HgN/A
4:00 PM61 °FLight rain. Partly sunny.20 mph83%30.45 "Hg4 mi
3:00 PM64 °FScattered showers. Partly sunny.18 mph73%30.42 "HgN/A
2:00 PM66 °FScattered clouds.17 mph64%30.45 "HgN/A
1:00 PM68 °FScattered clouds.17 mph69%30.48 "HgN/A
12:00 PM66 °FScattered clouds.17 mph73%30.51 "HgN/A
11:00 AM63 °FScattered clouds.14 mph77%30.54 "HgN/A
10:00 AM61 °FBroken clouds.14 mph88%30.54 "HgN/A
9:00 AM59 °FBroken clouds.12 mph88%30.54 "HgN/A
8:00 AM55 °FPartly sunny.7 mph100%30.54 "HgN/A
7:00 AM54 °FMore clouds than sun.1 mph100%30.54 "HgN/A
6:00 AM52 °FMostly cloudy.1 mph100%30.51 "HgN/A
5:00 AM52 °FMostly cloudy.2 mph100%30.48 "HgN/A
4:00 AM52 °FPassing clouds.3 mph100%30.48 "HgN/A
3:00 AM54 °FPassing clouds.3 mph100%30.48 "HgN/A
2:00 AM54 °FPassing clouds.2 mph100%30.51 "HgN/A
Weather by CustomWeather, © 2016

See weather overviewHow to use our weather pages